EST,Max TemperatureF,Mean TemperatureF,Min TemperatureF,Max Dew PointF,MeanDew PointF,Min DewpointF,Max Humidity, Mean Humidity, Min Humidity, Max Sea Level PressureIn, Mean Sea Level PressureIn, Min Sea Level PressureIn, Max VisibilityMiles, Mean VisibilityMiles, Min VisibilityMiles, Max Wind SpeedMPH, Mean Wind SpeedMPH, Max Gust SpeedMPH,PrecipitationIn, CloudCover, Events, WindDirDegrees
2014-1-1,30,24,19,17,9,4,75,52,38,30.37,30.32,30.19,10,10,10,15,8,23,0.00,2,,283
2014-1-2,32,28,24,30,25,16,93,86,63,30.32,30.00,29.65,10,2,0,25,9,40,0.20,8,Fog-Snow,49
2014-1-3,27,17,5,25,15,-8,93,82,55,30.38,29.78,29.48,10,2,0,34,23,48,0.26,8,Fog-Snow,359
2014-1-4,37,18,-2,29,10,-9,79,68,55,30.52,30.39,30.27,10,10,9,21,9,26,0.00,1,Snow,232
2014-1-5,46,37,28,46,34,20,100,83,69,30.33,30.20,29.95,10,9,2,14,7,21,0.03,5,Rain,177
2014-1-6,52,42,30,51,43,17,100,92,57,29.94,29.58,29.36,10,4,0,17,11,28,0.13,8,Fog-Rain,201
2014-1-7,30,20,10,19,1,-9,80,48,33,30.26,29.87,29.54,10,9,2,24,13,36,0.00,3,Snow,276
2014-1-8,24,17,10,8,0,-7,65,50,32,30.46,30.40,30.28,10,10,10,17,10,23,0.00,0,,260
2014-1-9,28,18,9,10,6,3,84,57,41,30.66,30.56,30.43,10,10,10,10,6,21,0.00,0,,311
2014-1-10,42,24,9,41,29,3,100,89,71,30.62,30.44,30.27,10,8,2,10,3,,0.03,7,Rain-Snow,185
2014-1-11,54,48,41,53,47,39,100,96,89,30.27,29.80,29.35,10,3,0,29,11,38,0.68,8,Fog-Rain,189
2014-1-12,50,44,36,49,36,22,100,74,44,29.98,29.56,29.34,10,8,0,20,12,29,0.13,5,Fog-Rain,264
2014-1-13,46,37,28,43,33,22,93,77,63,30.15,30.07,29.95,10,10,8,15,8,24,0.00,0,,216
2014-1-14,52,48,45,51,46,42,100,95,89,29.94,29.73,29.57,10,6,0,14,10,23,0.81,7,Fog-Rain,214
2014-1-15,46,40,33,42,35,31,96,85,63,30.03,29.93,29.74,10,9,6,10,6,18,0.00,1,,229
2014-1-16,42,38,34,41,39,32,100,96,92,29.91,29.86,29.82,10,2,0,9,3,,0.00,8,Fog,355
2014-1-17,44,36,28,39,33,26,100,88,53,29.99,29.94,29.91,10,6,0,16,3,25,0.00,5,Fog,222
2014-1-18,42,38,34,40,36,31,97,89,79,29.92,29.73,29.57,10,9,4,13,4,23,0.24,7,Rain,184
2014-1-19,37,34,32,33,27,21,92,76,55,29.72,29.67,29.60,10,9,1,30,14,41,0.00,6,Snow,240
2014-1-20,45,40,34,29,25,20,78,59,46,29.82,29.62,29.52,10,10,10,22,14,33,0.00,3,,253
2014-1-21,32,26,19,22,17,5,89,76,41,30.02,29.88,29.71,10,4,0,23,13,32,0.07,7,Fog-Snow,16
2014-1-22,25,18,10,22,15,-4,92,78,47,29.85,29.60,29.47,9,2,0,30,22,45,0.03,7,Fog-Snow,359
2014-1-23,23,14,6,4,-2,-6,70,54,37,30.16,29.99,29.86,10,9,7,20,8,,0.00,3,Snow,283
2014-1-24,19,11,3,-1,-4,-7,73,51,31,30.23,30.18,30.10,10,10,9,17,8,24,0.00,0,,282
2014-1-25,39,23,7,32,24,0,92,75,64,30.07,29.69,29.34,10,8,1,29,13,37,0.02,7,Rain-Snow,219
2014-1-26,28,24,19,22,9,-3,78,58,38,29.92,29.73,29.36,10,10,10,21,12,34,0.00,2,,259
2014-1-27,46,36,26,40,28,2,89,70,32,29.96,29.73,29.57,10,10,9,26,11,36,0.00,5,,227
2014-1-28,24,20,15,2,-5,-11,42,34,25,30.30,30.21,29.98,10,10,10,14,9,24,0.00,3,,301
2014-1-29,23,20,17,15,9,-3,88,67,38,30.22,30.09,29.99,10,6,0,14,5,,0.12,3,Fog-Snow,289
2014-1-30,30,16,3,23,7,-3,84,60,40,30.45,30.34,30.23,10,10,10,13,5,,0.00,1,,223
2014-1-31,37,34,32,34,27,19,93,73,48,30.20,30.10,30.04,10,10,9,15,9,21,0.00,4,,224